Location: *
(57.8420°S, 159.8600°W)
Time: 02:11:59
(UTC+00:00)

NOSS 3-2 (A) - Pass Details

Date: 18 May 2021
Orbit: 776 x 1432 km, 63.4° (Epoch: 22 June)

Event Time Altitude Azimuth Distance (km) Brightness Sun altitude
Rises 06:07:14 0° 258° (WSW) 4,246 8.1 -28.6°
Reaches altitude 10° 06:10:19 10° 253° (WSW) 3,186 7.1 -29.0°
Maximum altitude 06:17:45 56° 176° (S) 1,280 4.0 -30.0°
Enters shadow 06:18:18 54° 158° (SSE) 1,285 3.9 -30.1°
